Location: Unspecified
(64.9000°N, 0.0000°E)
Time: 22:27:01
(UTC+00:00)

Altair - Pass Details

Date: 16 June 2019
Orbit: 1501 x 1683 km, 47.2° (Epoch: 12 October)

Event Time Altitude Azimuth Distance (km) Brightness Sun altitude
Rises 23:02:29 0° 230° (SW) 4,797 9.8 -1.0°
Reaches altitude 10° 23:06:10 10° 218° (SW) 3,841 9.2 -1.1°
Maximum altitude 23:13:46 27° 167° (SSE) 2,805 8.4 -1.3°
Drops below altitude 10° 23:21:32 10° 116° (ESE) 3,933 9.3 -1.4°
Sets 23:25:22 0° 105° (ESE) 4,933 9.9 -1.5°
